Location: Tel Aviv
(32.0670°N, 34.7670°E)
Time: 16:04:59
(UTC+03:00)

ISS - Pass Details

Date: 22 May 2025
Orbit: 415 x 417 km, 51.6° (Epoch: 15 June)

Event Time Altitude Azimuth Distance (km) Brightness Sun altitude
Rises 22:35:09 0° 326° (NW) 2,354 1.3 -29.8°
Reaches altitude 10° 22:37:30 10° 340° (NNW) 1,488 -0.1 -30.0°
Enters shadow 22:38:04 13° 347° (NNW) 1,304 -0.5 -30.1°
